When you browse on this site, cookies collect data to enhance your experience and personalize the content and advertising you see.
Visit our Privacy Policy to learn more. By continuing to use the site, you agree to this use of cookies and data.
  • In Hungary
  • List of Countries
  • For 7 days
  • Water Temperature
  • Satellite Maps
  • Weather Map
  • News
  • Weather Widgets
  • user-avatar
    Login

    Hourly Weather Luboń

    Today, 17 February, Sunday

    Time Temperature Precipitation Wind Pressure Humidity
    00:00 +4°C° 0 mm 3 mps 748 mmHg 62%
    01:00 +4°C° 0 mm 3 mps 748 mmHg 65%
    02:00 +3°C° 0 mm 3 mps 748 mmHg 66%
    03:00 +3°C° 0 mm 3 mps 748 mmHg 67%
    04:00 +3°C° 0 mm 3 mps 748 mmHg 67%
    05:00 +3°C° 0 mm 3 mps 748 mmHg 68%
    06:00 +2°C° 0 mm 3 mps 748 mmHg 68%
    07:00 +2°C° 0 mm 3 mps 748 mmHg 68%
    08:00 +4°C° 0 mm 3 mps 748 mmHg 65%
    09:00 +5°C° 0 mm 3 mps 748 mmHg 61%
    10:00 +8°C° 0 mm 3 mps 748 mmHg 58%
    11:00 +9°C° 0 mm 2 mps 748 mmHg 55%
    12:00 +12°C° 0 mm 2 mps 748 mmHg 52%
    13:00 +13°C° 0 mm 2 mps 748 mmHg 50%
    14:00 +12°C° 0 mm 2 mps 747 mmHg 53%
    15:00 +12°C° 0 mm 2 mps 747 mmHg 56%
    16:00 +12°C° 0 mm 2 mps 746 mmHg 59%
    17:00 +9°C° 0 mm 2 mps 746 mmHg 61%
    18:00 +7°C° 0 mm 2 mps 746 mmHg 62%
    19:00 +6°C° 0 mm 2 mps 746 mmHg 64%
    20:00 +6°C° 0 mm 2 mps 746 mmHg 62%
    21:00 +5°C° 0 mm 2 mps 746 mmHg 60%
    22:00 +5°C° 0 mm 2 mps 746 mmHg 58%
    23:00 +5°C° 0 mm 2 mps 746 mmHg 59%

    Tomorrow, 18 February, Monday

    Time Temperature Precipitation Wind Pressure Humidity
    00:00 +5°C° 0 mm 2 mps 746 mmHg 60%
    01:00 +5°C° 0 mm 2 mps 746 mmHg 61%
    02:00 +4°C° 0 mm 2 mps 746 mmHg 62%
    03:00 +4°C° 0 mm 2 mps 745 mmHg 63%
    04:00 +4°C° 0 mm 2 mps 745 mmHg 64%
    05:00 +3°C° 0 mm 3 mps 745 mmHg 64%
    06:00 +2°C° 0 mm 3 mps 745 mmHg 64%
    07:00 +2°C° 0 mm 3 mps 745 mmHg 64%
    08:00 +4°C° 0 mm 3 mps 745 mmHg 61%
    09:00 +7°C° 0 mm 3 mps 745 mmHg 57%
    10:00 +8°C° 0 mm 3 mps 745 mmHg 53%
    11:00 +9°C° 0 mm 3 mps 745 mmHg 50%
    12:00 +11°C° 0 mm 3 mps 745 mmHg 48%
    13:00 +12°C° 0 mm 3 mps 745 mmHg 45%
    14:00 +12°C° 0 mm 2 mps 744 mmHg 48%
    15:00 +12°C° 0 mm 2 mps 744 mmHg 51%
    16:00 +10°C° 0 mm 2 mps 744 mmHg 54%
    17:00 +9°C° 0 mm 2 mps 744 mmHg 57%
    18:00 +7°C° 0 mm 2 mps 743 mmHg 59%
    19:00 +4°C° 0 mm 3 mps 743 mmHg 62%
    20:00 +4°C° 0 mm 3 mps 743 mmHg 63%
    21:00 +4°C° 0 mm 3 mps 743 mmHg 64%
    22:00 +4°C° 0 mm 3 mps 743 mmHg 66%
    23:00 +3°C° 0 mm 3 mps 743 mmHg 69%

    Day after tomorrow, 19 February, Tuesday

    Time Temperature Precipitation Wind Pressure Humidity
    00:00 +3°C° 0 mm 3 mps 743 mmHg 72%
    01:00 +3°C° 0 mm 3 mps 743 mmHg 75%
    02:00 +3°C° 0 mm 3 mps 743 mmHg 75%
    03:00 +3°C° 0 mm 3 mps 743 mmHg 74%
    04:00 +2°C° 0 mm 3 mps 742 mmHg 74%
    05:00 +2°C° 0 mm 3 mps 742 mmHg 74%
    06:00 +2°C° 0 mm 3 mps 742 mmHg 73%
    07:00 +2°C° 0 mm 3 mps 742 mmHg 73%
    08:00 +3°C° 0 mm 4 mps 742 mmHg 69%
    09:00 +5°C° 0 mm 4 mps 742 mmHg 65%
    10:00 +6°C° 0 mm 4 mps 742 mmHg 61%
    11:00 +7°C° 0 mm 4 mps 742 mmHg 58%
    12:00 +8°C° 0 mm 5 mps 742 mmHg 56%
    13:00 +9°C° 0 mm 5 mps 742 mmHg 53%
    14:00 +10°C° 0 mm 4 mps 742 mmHg 56%
    15:00 +10°C° 0 mm 4 mps 742 mmHg 59%
    16:00 +8°C° 0 mm 4 mps 742 mmHg 62%
    17:00 +8°C° 0.3 mm 4 mps 742 mmHg 70%
    18:00 +7°C° 0.3 mm 4 mps 742 mmHg 78%
    19:00 +6°C° 0.3 mm 4 mps 743 mmHg 86%
    20:00 +5°C° 0.2 mm 4 mps 743 mmHg 87%
    21:00 +4°C° 0.2 mm 3 mps 743 mmHg 89%
    22:00 +3°C° 0.2 mm 3 mps 744 mmHg 91%
    23:00 +3°C° 0 mm 3 mps 744 mmHg 91%

    20 February, Wednesday

    Time Temperature Precipitation Wind Pressure Humidity
    00:00 +3°C° 0 mm 3 mps 744 mmHg 91%
    01:00 +3°C° 0 mm 3 mps 744 mmHg 91%
    02:00 +3°C° 0 mm 3 mps 744 mmHg 92%
    03:00 +2°C° 0 mm 3 mps 744 mmHg 92%
    04:00 +2°C° 0 mm 3 mps 744 mmHg 93%
    05:00 +2°C° 0 mm 3 mps 745 mmHg 93%
    06:00 +2°C° 0 mm 3 mps 745 mmHg 92%
    07:00 +1°C° 0 mm 3 mps 745 mmHg 92%
    08:00 +3°C° 0 mm 4 mps 745 mmHg 86%
    09:00 +4°C° 0 mm 4 mps 746 mmHg 80%
    10:00 +5°C° 0 mm 5 mps 746 mmHg 74%
    11:00 +6°C° 0 mm 5 mps 746 mmHg 69%
    12:00 +6°C° 0 mm 5 mps 746 mmHg 65%
    13:00 +7°C° 0 mm 5 mps 746 mmHg 60%
    14:00 +7°C° 0 mm 5 mps 746 mmHg 61%
    15:00 +7°C° 0 mm 4 mps 746 mmHg 61%
    16:00 +7°C° 0 mm 4 mps 746 mmHg 62%
    17:00 +7°C° 0 mm 3 mps 746 mmHg 67%
    18:00 +5°C° 0 mm 3 mps 746 mmHg 73%
    19:00 +5°C° 0 mm 2 mps 746 mmHg 78%
    20:00 +4°C° 0 mm 3 mps 746 mmHg 78%
    21:00 +3°C° 0 mm 3 mps 747 mmHg 77%
    22:00 +3°C° 0 mm 3 mps 747 mmHg 77%
    23:00 +3°C° 0 mm 3 mps 747 mmHg 78%

    21 February, Thursday

    Time Temperature Precipitation Wind Pressure Humidity
    00:00 +3°C° 0 mm 3 mps 747 mmHg 79%
    01:00 +3°C° 0 mm 3 mps 746 mmHg 80%
    02:00 +3°C° 0 mm 3 mps 746 mmHg 81%
    03:00 +3°C° 0 mm 3 mps 746 mmHg 82%
    04:00 +3°C° 0 mm 3 mps 746 mmHg 82%
    05:00 +3°C° 0 mm 3 mps 746 mmHg 82%
    06:00 +3°C° 0 mm 3 mps 746 mmHg 83%
    07:00 +3°C° 0 mm 4 mps 745 mmHg 83%
    08:00 +4°C° 0 mm 4 mps 746 mmHg 80%
    09:00 +5°C° 0 mm 5 mps 746 mmHg 76%
    10:00 +6°C° 0 mm 5 mps 746 mmHg 73%
    11:00 +6°C° 0.3 mm 5 mps 745 mmHg 77%
    12:00 +6°C° 0.3 mm 5 mps 745 mmHg 80%
    13:00 +5°C° 0.3 mm 5 mps 745 mmHg 84%
    14:00 +6°C° 0.1 mm 5 mps 745 mmHg 85%
    15:00 +6°C° 0.1 mm 5 mps 745 mmHg 86%
    16:00 +6°C° 0.1 mm 5 mps 745 mmHg 88%
    17:00 +6°C° 0.1 mm 4 mps 746 mmHg 88%
    18:00 +6°C° 0.1 mm 4 mps 746 mmHg 89%
    19:00 +6°C° 0.1 mm 4 mps 746 mmHg 90%
    20:00 +6°C° 0.1 mm 4 mps 746 mmHg 91%
    21:00 +5°C° 0.1 mm 4 mps 747 mmHg 92%
    22:00 +5°C° 0.1 mm 3 mps 747 mmHg 93%
    23:00 +5°C° 0.1 mm 4 mps 747 mmHg 93%

    22 February, Friday

    Time Temperature Precipitation Wind Pressure Humidity
    00:00 +5°C° 0.1 mm 4 mps 747 mmHg 93%
    01:00 +5°C° 0.1 mm 5 mps 747 mmHg 93%
    02:00 +5°C° 0.1 mm 5 mps 747 mmHg 92%
    03:00 +4°C° 0.1 mm 6 mps 747 mmHg 90%
    04:00 +3°C° 0.1 mm 6 mps 747 mmHg 89%
    05:00 +3°C° 0.1 mm 6 mps 747 mmHg 89%
    06:00 +3°C° 0.1 mm 6 mps 747 mmHg 90%
    07:00 +3°C° 0.1 mm 6 mps 747 mmHg 90%
    08:00 +3°C° 0.2 mm 6 mps 747 mmHg 90%
    09:00 +3°C° 0.2 mm 6 mps 748 mmHg 90%
    10:00 +3°C° 0.2 mm 5 mps 749 mmHg 90%
    11:00 +3°C° 0.1 mm 5 mps 749 mmHg 89%
    12:00 +3°C° 0.1 mm 5 mps 750 mmHg 88%
    13:00 +3°C° 0.1 mm 5 mps 750 mmHg 87%
    14:00 +3°C° 0.1 mm 5 mps 751 mmHg 85%
    15:00 +2°C° 0.1 mm 5 mps 752 mmHg 82%
    16:00 +1°C° 0.1 mm 5 mps 752 mmHg 79%
    17:00 +1°C° 0 mm 5 mps 753 mmHg 79%
    18:00 0°C° 0 mm 4 mps 754 mmHg 79%
    19:00 -1°C° 0 mm 4 mps 754 mmHg 79%
    20:00 -1°C° 0 mm 4 mps 755 mmHg 79%
    21:00 -2°C° 0 mm 4 mps 756 mmHg 79%
    22:00 -3°C° 0 mm 4 mps 756 mmHg 78%
    23:00 -3°C° 0 mm 4 mps 757 mmHg 78%
    Show more